星链-3600 (STARLINK-3600 )

导读

STARLINK-3600是美国SpaceX星链互联网项目的卫星,于北京时间2022年2月25日发射。它是低轨卫星星座的组成部分,旨在为全球提供高速低延迟卫星互联网服务,弥补地面网络覆盖盲区,服役以来推进了星链星座全球组网进程,服务用户通信网络需求。

基本信息
目录编号:
51800
目录名称:
STARLINK-3600
国际标识:
2022-017AJ
轨道中心:
EARTH
卫星名称:
星链-3600
卫星全名:
星链-3600 (STARLINK-3600 )
卫星状态:
已陨落 最后检测时间 2023-12-15
发射日期:
2022-02-25 UTC
国别 :
美国 (US)
星等 :
--
轨道信息
数据来源 国际轨道数据
星历时间: 2023-12-15T17:40:38+0800
轨道信息已过期911天
半长轴: 6534.057km
偏心率: 0.0001003
轨道倾角: 53.184°
近地点辐角 42.807°
升交点赤经 335.339°
平近点角 34.279°
近地点: 155.266km
远地点: 156.578km
周期: 87.606分钟
每日圈数: 16.437222
详细信息
固有亮度:
5
最大亮度:
2.5
卫星平台:
Starlink v1.5
覆盖范围:
全球
运营商:
太空探索技术公司
运营商所在国:
美国
制造商(研发单位):
太空探索技术公司
制造商所在国:
美国
使用方式:
暂无
卫星简介
星链(Starlink)计划是由太空探索技术公司(SpaceX)提出的一个巨型低轨卫星互联网星座项目,计划在2019年至2024年间在太空搭建由约1.2万颗卫星组成的“星链”网络,其中1584颗将部署在地球上空550千米处的近地轨道,并从2020年开始工作。该卫星已陨落。